This is the latest recevied weather packets stored in our database for station/object KB3KBR-WX. If no packets are shown the sender has not sent any weather packets the latest 1 day(s).
| Time | Temp. | Humidity | Pressure | Rain* | Wind** | Luminosity | Snow |
|---|---|---|---|---|---|---|---|
| 1777990499 | 18.33° C | 65% | 1004.4 hPa | 0 mm | 2.68 m/s, 174° | - | - |
| 1777990199 | 18.33° C | 65% | 1004.4 hPa | 0 mm | 2.24 m/s, 170° | - | - |
| 1777989899 | 18.33° C | 65% | 1004.2 hPa | 0 mm | 2.24 m/s, 166° | - | - |
| 1777989571 | 18.33° C | 66% | 1004.2 hPa | 0 mm | 2.24 m/s, 162° | - | - |
| 1777989269 | 18.33° C | 66% | 1004.2 hPa | 0 mm | 2.24 m/s, 165° | - | - |
| 1777988969 | 18.33° C | 66% | 1004.3 hPa | 0 mm | 1.79 m/s, 167° | - | - |
| 1777988639 | 18.33° C | 67% | 1004.3 hPa | 0 mm | 1.79 m/s, 173° | - | - |
| 1777988309 | 18.33° C | 66% | 1004.3 hPa | 0 mm | 1.79 m/s, 169° | - | - |
| 1777988009 | 18.33° C | 66% | 1004.2 hPa | 0 mm | 2.24 m/s, 172° | - | - |
| 1777987709 | 17.78° C | 67% | 1004.3 hPa | 0 mm | 2.24 m/s, 176° | - | - |
| 1777987380 | 17.78° C | 67% | 1004.4 hPa | 0 mm | 2.24 m/s, 164° | - | - |
| 1777987079 | 17.78° C | 66% | 1004.2 hPa | 0 mm | 2.24 m/s, 168° | - | - |
| 1777986749 | 17.78° C | 67% | 1004.3 hPa | 0 mm | 2.24 m/s, 167° | - | - |
| 1777986419 | 17.78° C | 67% | 1004.1 hPa | 0 mm | 2.24 m/s, 163° | - | - |
| 1777986119 | 17.78° C | 67% | 1004.1 hPa | 0 mm | 1.79 m/s, 170° | - | - |
| 1777985789 | 17.78° C | 67% | 1004.2 hPa | 0 mm | 1.79 m/s, 174° | - | - |
| 1777985489 | 17.78° C | 67% | 1004.2 hPa | 0 mm | 1.79 m/s, 183° | - | - |
| 1777985160 | 17.78° C | 67% | 1004.1 hPa | 0 mm | 1.34 m/s, 176° | - | - |
| 1777984859 | 17.78° C | 67% | 1004.1 hPa | 0 mm | 1.79 m/s, 168° | - | - |
| 1777984532 | 17.78° C | 67% | 1004.1 hPa | 0 mm | 2.24 m/s, 163° | - | - |
| 1777984529 | 17.78° C | 67% | 1004.1 hPa | 0 mm | 2.24 m/s, 163° | - | - |
| 1777984229 | 17.78° C | 67% | 1003.9 hPa | 0 mm | 2.24 m/s, 177° | - | - |
| 1777983929 | 17.78° C | 66% | 1004.1 hPa | 0 mm | 2.68 m/s, 182° | - | - |
| 1777983629 | 17.78° C | 67% | 1004.1 hPa | 0 mm | 2.24 m/s, 167° | - | - |
| 1777983299 | 17.78° C | 67% | 1004 hPa | 0 mm | 2.68 m/s, 171° | - | - |
* Rain latest hour (hover to see other rain measurements)
** Current wind speed in m/s (hover to see current wind gust speed)